DG8SF-13 Weather Reports


time (UTC)temp
F
wind
direction
speed
knots
gust
knots
rain 1hr
in
rain 24hr
in
rain mn
in
humidity
%
barometer
mb
20260507075829 49 248 1.7 6.1 0.00 0.28 0.06 94 1013.4
20260507075319 49 270 0.9 6.1 0.00 0.28 0.06 95 1013.1
20260507074804 49 270 1.7 1.7 0.00 0.28 0.06 95 1013.1
20260507074253 49 292 1.7 3.5 0.00 0.28 0.06 95 1013.0
20260507073740 49 248 1.7 3.5 0.00 0.28 0.06 95 1013.0
20260507073229 48 225 2.6 6.1 0.00 0.28 0.06 94 1012.9
20260507072717 49 225 2.6 6.1 0.02 0.28 0.06 95 1012.8
20260507072205 48 225 2.6 6.1 0.02 0.28 0.06 95 1012.8
20260507071652 49 225 1.7 6.1 0.02 0.28 0.06 96 1012.8
20260507071139 48 270 0.9 3.5 0.02 0.28 0.06 96 1012.7
20260507070629 48 270 0.9 3.5 0.02 0.28 0.06 96 1012.7
20260507070117 48 270 1.7 3.5 0.02 0.28 0.06 96 1012.7
20260507065605 47 248 1.7 3.5 0.03 0.28 0.06 96 1012.7
20260507065053 47 248 1.7 3.5 0.03 0.28 0.06 96 1012.6
20260507064541 47 248 1.7 6.1 0.05 0.28 0.06 96 1012.6
20260507064027 47 248 1.7 3.5 0.05 0.28 0.06 96 1012.6
20260507063516 47 248 1.7 6.1 0.05 0.28 0.06 96 1012.6
20260507063004 47 292 1.7 3.5 0.05 0.28 0.06 96 1012.5
20260507062455 46 292 1.7 3.5 0.03 0.27 0.05 96 1012.5
20260507061941 46 248 1.7 6.1 0.03 0.27 0.05 96 1012.4
20260507061428 46 248 2.6 6.1 0.03 0.27 0.05 96 1012.4
20260507060917 46 225 1.7 6.1 0.03 0.27 0.05 96 1012.4
20260507060404 46 248 1.7 6.1 0.05 0.27 0.05 96 1012.4
20260507055854 46 248 1.7 3.5 0.05 0.27 0.05 96 1012.4
20260507055339 46 248 2.6 7.8 0.03 0.25 0.03 96 1012.3
20260507054827 46 248 2.6 7.8 0.03 0.25 0.03 95 1012.3
20260507054317 46 225 1.7 6.1 0.02 0.24 0.02 95 1012.3
20260507053804 46 225 1.7 3.5 0.02 0.24 0.02 96 1012.2
20260507053253 46 248 1.7 6.1 0.02 0.24 0.02 96 1012.2
20260507052740 46 292 1.7 7.8 0.02 0.24 0.02 96 1012.1
20260507052228 46 292 1.7 3.5 0.02 0.24 0.02 96 1012.0
20260507051717 46 292 1.7 3.5 0.02 0.24 0.02 95 1012.0
20260507051205 45 225 1.7 3.5 0.02 0.24 0.02 95 1011.9
20260507050651 45 225 1.7 3.5 0.02 0.24 0.02 95 1011.8
20260507050140 45 225 1.7 3.5 0.00 0.22 0.00 95 1011.7
20260507045627 45 248 1.7 3.5 0.00 0.22 0.00 94 1011.6
20260507045118 45 292 1.7 3.5 0.00 0.22 0.00 94 1011.6
20260507044605 45 270 1.7 3.5 0.00 0.22 0.00 94 1011.5
20260507044054 45 270 1.7 3.5 0.00 0.22 0.00 94 1011.4
20260507043545 45 270 1.7 3.5 0.00 0.22 0.00 94 1011.3
20260507043028 45 270 1.7 3.5 0.00 0.22 0.00 94 1011.3
20260507042516 45 248 1.7 3.5 0.00 0.22 0.00 94 1011.2
20260507042006 45 248 1.7 6.1 0.00 0.22 0.00 94 1011.1
20260507041452 45 248 1.7 3.5 0.00 0.22 0.00 94 1011.0
20260507040941 45 248 1.7 3.5 0.00 0.22 0.00 94 1011.0
20260507040428 45 248 1.7 3.5 0.00 0.22 0.00 94 1011.0
20260507035915 45 270 1.7 3.5 0.00 0.22 0.00 95 1011.0
20260507035405 45 248 1.7 1.7 0.00 0.22 0.00 95 1011.0
20260507034852 45 248 0.9 1.7 0.00 0.22 0.00 95 1010.9
20260507034341 45 248 0.9 3.5 0.00 0.22 0.00 95 1010.9
20260507033834 45 248 0.9 3.5 0.00 0.22 0.00 95 1010.8
20260507033317 45 248 1.7 3.5 0.00 0.22 0.00 95 1010.8
20260507032804 45 248 0.9 3.5 0.00 0.22 0.00 94 1010.7
20260507032254 45 248 0.9 3.5 0.00 0.22 0.00 95 1010.7
20260507031741 44 248 0.9 6.1 0.00 0.22 0.00 95 1010.7
20260507031229 45 248 1.7 3.5 0.00 0.22 0.00 95 1010.6
20260507030715 45 248 1.7 6.1 0.00 0.22 0.00 95 1010.6
20260507030213 45 248 1.7 6.1 0.00 0.22 0.00 94 1010.5
20260507025653 45 292 1.7 3.5 0.00 0.22 0.00 94 1010.5
20260507025141 45 270 1.7 3.5 0.00 0.22 0.00 95 1010.5
20260507024628 45 225 1.7 3.5 0.00 0.22 0.00 95 1010.4
20260507024118 44 270 1.7 7.8 0.00 0.22 0.00 96 1010.4
20260507023604 44 225 1.7 9.6 0.00 0.22 0.00 96 1010.4
20260507023056 44 248 1.7 3.5 0.00 0.22 0.00 97 1010.5
20260507022545 44 248 1.7 3.5 0.00 0.22 0.00 97 1010.5
20260507022028 44 292 1.7 3.5 0.00 0.22 0.00 98 1010.5
20260507021516 44 248 1.7 3.5 0.00 0.22 0.00 98 1010.4
20260507021006 44 248 0.9 3.5 0.00 0.22 0.00 99 1010.3
20260507020452 44 270 0.9 1.7 0.00 0.22 0.00 99 1010.3
20260507015942 44 270 0.9 3.5 0.00 0.22 0.00 99 1010.3
20260507015429 44 270 0.9 3.5 0.00 0.22 0.00 99 1010.4
20260507014917 42 0 0.0 0.0 0.00 0.22 0.00 99 1010.4
20260507014403 42 0 0.0 0.0 0.00 0.22 0.00 99 1010.4
20260507013854 43 292 0.0 1.7 0.00 0.22 0.00 99 1010.4
20260507013340 43 292 0.0 1.7 0.00 0.22 0.00 99 1010.4
20260507012818 43 292 0.0 1.7 0.00 0.22 0.00 99 1010.3
20260507012306 43 0 0.0 0.0 0.00 0.22 0.00 99 1010.3
20260507011753 42 292 0.0 0.0 0.00 0.22 0.00 99 1010.2
20260507011241 43 292 0.0 1.7 0.00 0.22 0.00 99 1010.1
20260507010734 43 292 0.0 0.0 0.00 0.22 0.00 99 1010.1
20260507010216 43 292 0.0 1.7 0.00 0.22 0.00 98 1010.1
20260507005707 43 292 0.0 1.7 0.00 0.22 0.00 98 1010.1
20260507005151 43 292 0.0 1.7 0.00 0.22 0.00 98 1010.2
20260507004641 43 292 0.9 1.7 0.00 0.22 0.00 98 1010.2
20260507004128 44 292 0.9 1.7 0.00 0.22 0.00 98 1010.2
20260507003618 44 292 0.9 1.7 0.00 0.22 0.00 98 1010.2
20260507003104 44 292 0.9 3.5 0.00 0.22 0.00 98 1010.0
20260507002554 43 292 0.0 1.7 0.00 0.22 0.00 98 1010.1
20260507002043 43 0 0.0 0.0 0.00 0.22 0.00 98 1010.0
20260507001528 43 0 0.0 0.0 0.00 0.22 0.00 98 1010.1
20260507001016 44 0 0.0 0.0 0.00 0.22 0.00 98 1010.1
20260507000505 43 0 0.0 0.0 0.00 0.22 0.00 98 1010.0
20260506235953 44 0 0.0 0.0 0.00 0.22 0.00 98 1010.0
20260506235440 44 0 0.0 0.0 0.00 0.22 0.00 98 1010.1
20260506234928 44 0 0.0 0.0 0.00 0.22 0.00 97 1010.1
20260506234417 44 0 0.0 0.0 0.00 0.22 0.00 97 1010.0
20260506233904 44 292 0.0 1.7 0.00 0.22 0.00 97 1010.1
20260506233354 44 0 0.0 0.0 0.00 0.22 0.00 97 1010.0
20260506232840 44 0 0.0 0.0 0.00 0.22 0.00 97 1010.0
20260506232329 45 0 0.0 0.0 0.00 0.22 0.00 97 1010.1
20260506231816 45 0 0.0 0.0 0.00 0.22 0.00 97 1010.1
20260506231305 45 292 0.0 1.7 0.00 0.22 0.00 97 1010.0
20260506230752 45 292 0.9 1.7 0.00 0.22 0.00 97 1010.0
20260506230241 45 292 0.9 1.7 0.00 0.22 0.00 97 1009.9
20260506225728 45 292 0.9 1.7 0.00 0.22 0.00 97 1010.0
20260506225222 46 292 0.9 1.7 0.00 0.22 0.00 97 1010.1
20260506224704 46 292 0.9 1.7 0.00 0.22 0.00 97 1010.0
20260506224152 46 292 0.9 3.5 0.00 0.22 0.00 97 1010.0
20260506223639 46 292 0.9 1.7 0.00 0.22 0.00 97 1010.0
20260506223130 46 292 0.9 1.7 0.00 0.22 0.00 97 1009.9
20260506222615 46 292 0.9 1.7 0.00 0.22 0.00 97 1009.9
20260506222106 46 292 0.9 1.7 0.00 0.22 0.00 97 1009.8
20260506221553 46 292 0.9 1.7 0.00 0.22 0.00 97 1009.8
20260506221041 46 292 0.9 1.7 0.00 0.22 0.00 96 1009.7
20260506220527 46 315 0.9 1.7 0.00 0.22 0.00 96 1009.7
20260506220018 46 315 0.0 3.5 0.00 0.22 0.00 96 1009.6
20260506215504 46 315 0.0 1.7 0.00 0.22 0.22 96 1009.6
20260506215003 46 0 0.0 0.0 0.00 0.22 0.22 96 1009.5
20260506214439 46 315 0.0 0.0 0.00 0.22 0.22 95 1009.5
20260506213930 47 315 0.9 3.5 0.00 0.22 0.22 95 1009.4
20260506213416 47 315 0.9 1.7 0.00 0.22 0.22 95 1009.3
20260506212907 47 315 1.7 3.5 0.00 0.22 0.22 95 1009.3
20260506212351 47 292 1.7 6.1 0.00 0.22 0.22 95 1009.3
20260506211841 47 248 1.7 3.5 0.00 0.22 0.22 95 1009.2
20260506211328 47 248 2.6 6.1 0.00 0.22 0.22 95 1009.2
20260506210818 47 248 2.6 7.8 0.00 0.22 0.22 95 1009.2
20260506210302 47 248 1.7 3.5 0.00 0.22 0.22 95 1009.1
20260506205754 47 248 1.7 6.1 0.00 0.22 0.22 95 1009.1
20260506205241 47 270 1.7 6.1 0.00 0.22 0.22 95 1009.2
20260506204729 47 248 1.7 3.5 0.00 0.22 0.22 95 1009.2
20260506204216 47 248 0.9 3.5 0.00 0.22 0.22 95 1009.1
20260506203704 47 248 0.9 6.1 0.00 0.22 0.22 95 1009.2
20260506203152 48 248 0.9 1.7 0.00 0.22 0.22 95 1009.1
20260506202642 48 248 1.7 3.5 0.00 0.22 0.22 95 1009.1
20260506202129 48 248 0.9 3.5 0.00 0.22 0.22 95 1009.0
20260506201616 48 248 1.7 3.5 0.00 0.22 0.22 94 1009.1
20260506201104 48 248 1.7 6.1 0.00 0.22 0.22 94 1009.0
20260506200554 48 248 2.6 6.1 0.00 0.22 0.22 95 1009.0
20260506200040 48 248 2.6 6.1 0.00 0.22 0.22 95 1009.0
20260506195530 48 270 1.7 3.5 0.00 0.22 0.22 96 1008.9
20260506195017 48 270 1.7 3.5 0.00 0.22 0.22 96 1008.8
20260506194505 48 270 0.9 3.5 0.00 0.22 0.22 96 1008.7
20260506193952 48 270 0.9 3.5 0.00 0.22 0.22 96 1008.7
20260506193441 48 270 0.9 3.5 0.00 0.22 0.22 96 1008.6
20260506192928 48 270 0.9 3.5 0.00 0.22 0.22 95 1008.6
20260506192420 48 270 0.9 3.5 0.00 0.22 0.22 95 1008.4
20260506191904 49 270 1.7 1.7 0.00 0.22 0.22 94 1008.3
20260506191353 49 270 1.7 3.5 0.00 0.22 0.22 94 1008.2
20260506190329 49 270 1.7 3.5 0.00 0.22 0.22 95 1008.2
20260506185816 49 270 1.7 3.5 0.00 0.22 0.22 95 1008.2
20260506185307 49 68 2.6 6.1 0.00 0.22 0.22 95 1008.2
20260506184752 49 270 1.7 6.1 0.00 0.22 0.22 95 1008.0
20260506184242 49 248 1.7 3.5 0.02 0.22 0.22 95 1007.9
20260506183728 49 248 1.7 3.5 0.02 0.22 0.22 95 1007.8
20260506183227 49 202 1.7 6.1 0.02 0.22 0.22 95 1007.8
20260506182703 49 248 1.7 7.8 0.02 0.22 0.22 95 1007.8
20260506182153 50 248 1.7 3.5 0.02 0.22 0.22 95 1007.6
20260506181641 50 225 1.7 6.1 0.02 0.22 0.22 95 1007.7
20260506181129 50 202 1.7 3.5 0.02 0.22 0.22 95 1007.6
20260506180615 50 202 1.7 3.5 0.02 0.22 0.22 95 1007.5
20260506180107 50 202 1.7 3.5 0.02 0.22 0.22 95 1007.4
20260506175553 51 225 1.7 6.1 0.02 0.22 0.22 95 1007.3
20260506175031 51 225 1.7 3.5 0.03 0.22 0.22 95 1007.3
20260506174516 51 248 0.9 6.1 0.03 0.22 0.22 94 1007.1
20260506174006 52 270 0.9 1.7 0.02 0.20 0.20 95 1007.1
20260506173452 52 270 0.9 1.7 0.02 0.20 0.20 95 1007.1
20260506172942 52 270 0.0 1.7 0.02 0.20 0.20 95 1006.9
20260506172428 52 270 0.0 0.0 0.03 0.20 0.20 95 1006.8
20260506171916 52 270 0.9 1.7 0.03 0.20 0.20 95 1006.8
20260506171403 52 270 0.9 3.5 0.03 0.20 0.20 95 1006.7
20260506170853 52 270 0.9 1.7 0.05 0.20 0.20 95 1006.8
20260506170346 52 270 0.9 1.7 0.08 0.20 0.20 94 1006.8
20260506165829 52 270 0.9 3.5 0.08 0.20 0.20 94 1006.6
20260506165318 52 270 1.7 3.5 0.09 0.20 0.20 94 1006.7
20260506164805 52 270 1.7 3.5 0.13 0.19 0.19 94 1006.7
20260506164253 52 292 1.7 6.1 0.17 0.19 0.19 94 1006.7
20260506163742 52 225 1.7 3.5 0.19 0.19 0.19 94 1006.7
20260506163228 52 270 1.7 1.7 0.19 0.19 0.19 94 1006.6
20260506162718 52 270 0.9 1.7 0.19 0.19 0.19 94 1006.6
20260506162205 52 270 0.9 1.7 0.17 0.17 0.17 94 1006.6
20260506161653 52 270 1.7 3.5 0.17 0.17 0.17 93 1006.5
20260506161139 52 270 1.7 3.5 0.17 0.17 0.17 92 1006.4
20260506160630 52 248 1.7 3.5 0.16 0.16 0.16 93 1006.4
20260506160104 52 248 1.7 3.5 0.13 0.13 0.13 92 1006.4
20260506155553 53 248 1.7 3.5 0.13 0.13 0.13 91 1006.4
20260506155046 53 248 1.7 3.5 0.11 0.11 0.11 90 1006.3
20260506154529 54 248 1.7 6.1 0.06 0.06 0.06 88 1006.1
20260506154018 55 158 1.7 6.1 0.02 0.02 0.02 83 1005.8
20260506153506 56 248 1.7 7.8 0.00 0.00 0.00 76 1005.5
20260506152951 58 270 1.7 6.1 0.00 0.00 0.00 70 1005.0
20260506152441 61 248 1.7 1.7 0.00 0.00 0.00 65 1004.9
20260506151928 62 248 1.7 6.1 0.00 0.00 0.00 60 1004.6
20260506151417 64 248 1.7 6.1 0.00 0.00 0.00 57 1004.3
20260506150906 65 225 1.7 1.7 0.00 0.00 0.00 55 1004.1
20260506150355 67 225 0.9 1.7 0.00 0.00 0.00 54 1004.2
20260506145840 68 225 1.7 3.5 0.00 0.00 0.00 52 1004.2
20260506145329 69 225 1.7 1.7 0.00 0.00 0.00 53 1004.2
20260506144817 69 225 1.7 3.5 0.00 0.00 0.00 51 1004.3
20260506144304 69 225 1.7 1.7 0.00 0.00 0.00 55 1004.4
20260506143751 71 225 1.7 3.5 0.00 0.00 0.00 52 1004.2
20260506143243 70 225 1.7 3.5 0.00 0.00 0.00 55 1004.2
20260506142728 68 225 0.9 1.7 0.00 0.00 0.00 57 1004.3
20260506142217 65 225 1.7 3.5 0.00 0.00 0.00 60 1004.5
20260506141705 65 225 1.7 6.1 0.00 0.00 0.00 61 1004.4
20260506141154 65 225 0.9 3.5 0.00 0.00 0.00 61 1004.4
20260506140642 65 225 0.9 3.5 0.00 0.00 0.00 60 1004.5
20260506140129 65 225 0.9 3.5 0.00 0.00 0.00 59 1004.5
20260506135616 66 225 0.9 1.7 0.00 0.00 0.00 60 1004.4
20260506135107 66 225 0.9 3.5 0.00 0.00 0.00 58 1004.5
20260506134553 66 225 0.9 1.7 0.00 0.00 0.00 57 1004.7
20260506134041 66 112 0.9 1.7 0.00 0.00 0.00 58 1004.7
20260506133528 65 112 0.0 1.7 0.00 0.02 0.00 58 1004.7
20260506133017 65 112 0.0 1.7 0.00 0.02 0.00 58 1004.7
20260506132506 65 112 0.9 1.7 0.00 0.02 0.00 58 1004.7
20260506131953 65 112 0.9 1.7 0.00 0.02 0.00 58 1004.6
20260506131440 65 112 0.0 0.0 0.00 0.02 0.00 57 1004.6
20260506130933 66 112 0.9 1.7 0.00 0.02 0.00 58 1004.5
20260506130416 67 112 0.9 1.7 0.00 0.02 0.00 57 1004.6
20260506125910 66 112 0.9 1.7 0.00 0.02 0.00 56 1004.6
20260506125353 67 112 0.9 3.5 0.00 0.02 0.00 56 1004.5
20260506124841 67 112 0.0 1.7 0.00 0.02 0.00 55 1004.5
20260506124329 65 112 0.9 1.7 0.00 0.02 0.00 56 1004.5
20260506123817 65 112 0.9 1.7 0.00 0.02 0.00 59 1004.6
20260506123305 65 112 0.9 1.7 0.00 0.02 0.00 56 1004.6
20260506122754 66 180 0.9 1.7 0.00 0.02 0.00 56 1004.6
20260506122240 66 248 0.0 1.7 0.00 0.02 0.00 55 1004.5
20260506121731 65 248 0.9 1.7 0.00 0.02 0.00 56 1004.5
20260506121216 65 248 0.9 3.5 0.00 0.02 0.00 57 1004.6
20260506120707 65 248 0.9 1.7 0.00 0.02 0.00 56 1004.7
20260506120151 65 248 0.9 1.7 0.00 0.02 0.00 55 1004.7
20260506115643 66 248 0.0 1.7 0.00 0.02 0.00 54 1004.7
20260506115129 66 248 0.0 1.7 0.00 0.02 0.00 54 1004.7
20260506114618 67 248 0.9 1.7 0.00 0.02 0.00 53 1004.8
20260506114104 66 248 0.9 1.7 0.00 0.02 0.00 54 1004.8
20260506113554 67 248 0.9 1.7 0.00 0.02 0.00 54 1004.7
20260506113040 67 248 0.9 1.7 0.00 0.02 0.00 53 1004.7
20260506112530 68 248 0.9 1.7 0.00 0.02 0.00 55 1004.7
20260506112017 68 202 0.9 1.7 0.00 0.02 0.00 51 1004.7
20260506111504 65 202 1.7 1.7 0.00 0.02 0.00 52 1004.8
20260506110953 64 158 0.9 1.7 0.00 0.02 0.00 58 1004.9
20260506110441 63 158 0.9 3.5 0.00 0.02 0.00 59 1005.1
20260506105928 62 202 0.9 3.5 0.00 0.02 0.00 61 1005.1
20260506105417 63 202 0.9 1.7 0.00 0.02 0.00 62 1005.2
20260506104904 63 202 0.0 1.7 0.00 0.02 0.00 60 1005.3
20260506104354 62 202 0.0 1.7 0.00 0.02 0.00 64 1005.4
20260506103841 63 202 0.0 0.0 0.00 0.02 0.00 62 1005.5
20260506103330 62 202 0.0 1.7 0.00 0.02 0.00 62 1005.6
20260506102816 63 202 0.9 3.5 0.00 0.02 0.00 61 1005.7
20260506102306 64 202 0.0 0.0 0.00 0.02 0.00 60 1005.7
20260506101754 64 202 0.9 3.5 0.00 0.02 0.00 61 1005.8
20260506101241 65 202 0.0 0.0 0.00 0.02 0.00 57 1005.8
20260506100730 63 202 0.9 3.5 0.00 0.02 0.00 60 1005.9
20260506100218 63 202 0.9 3.5 0.00 0.02 0.00 61 1005.9
20260506095707 64 202 0.9 3.5 0.00 0.02 0.00 62 1005.9
20260506095152 62 202 1.7 3.5 0.00 0.02 0.00 62 1005.9
20260506094641 62 202 0.9 3.5 0.00 0.02 0.00 62 1005.9
20260506094130 64 202 0.9 1.7 0.00 0.02 0.00 58 1005.9
20260506093617 65 202 0.9 1.7 0.00 0.02 0.00 60 1005.9
20260506093106 65 202 0.0 1.7 0.00 0.02 0.00 60 1005.8
20260506092551 64 202 0.9 1.7 0.00 0.02 0.00 61 1005.9
20260506092043 63 202 0.9 1.7 0.00 0.02 0.00 58 1005.9
20260506091530 64 202 0.9 1.7 0.00 0.02 0.00 61 1005.9
20260506091017 63 202 0.9 1.7 0.00 0.02 0.00 63 1005.8
20260506090504 63 202 0.0 1.7 0.00 0.02 0.00 65 1005.8
20260506085955 62 202 0.0 1.7 0.00 0.02 0.00 63 1005.9
20260506085441 61 202 0.0 1.7 0.00 0.02 0.00 69 1005.9
20260506084930 60 202 0.9 1.7 0.00 0.02 0.00 71 1006.0
20260506084417 59 202 0.9 1.7 0.00 0.02 0.00 72 1005.8
20260506083905 59 202 0.9 1.7 0.00 0.02 0.00 73 1005.9
20260506083353 59 202 0.9 1.7 0.00 0.02 0.00 72 1005.9
20260506082840 59 202 0.9 1.7 0.00 0.02 0.00 74 1005.9
20260506082329 58 202 0.0 1.7 0.00 0.02 0.00 77 1006.0
20260506081818 58 202 0.0 1.7 0.00 0.02 0.00 78 1006.0
20260506081306 57 202 0.0 1.7 0.00 0.02 0.00 79 1005.9
20260506080752 56 202 0.9 1.7 0.00 0.02 0.00 80 1006.0